sat.trackr.live / text

‹ back to catalog

STARLINK-5892

NORAD 55954 · 2023-037AS

PAYLOAD ACTIVE UNKNOWN

§ Identity

Operator
Country
US
Launch date
2023-03-17
Launch site
AFWTR
Launch vehicle
Mass (kg)
RCS (m²)

Purposes: comms

External: N2YO · Heavens-Above · Gunter

§ Orbital elements

Epoch: 2026-09-20T22:55:31.516896Z

Period
96.11 min
Inclination
69.9989°
Eccentricity
0.0002585
Mean motion
14.98330953 rev/d
Perigee alt
570.3 km
Apogee alt
573.8 km
Semi-major
6,950.2 km
B*
1.0954e-5
RAAN
132.0588°
Arg perigee
268.6029°
Mean anomaly
91.4833°
Rev number
19,372

§ Raw data

STARLINK-58921 55954U 23037AS  26263.95522589  .00000038  00000+0  10954-4 0  99902 55954  69.9989 132.0588 0002585 268.6029  91.4833 14.98330953193725

JSON: /api/v1/satellites/55954 · /tle

For live sub-satellite position, see the globe view (requires WebGL).

§ Visibility from observer

Set your observer location to see the next 7 days of passes ≥ 10°. The values pass through the URL so the page stays shareable.

No JS? Fill the form by hand. The geolocation button needs JavaScript.